FW2950 Weather Reports


time (UTC)temp
F
wind
direction
speed
knots
gust
knots
rain 1hr
in
rain 24hr
in
rain mn
in
humidity
%
barometer
mb
20211017165329 41 26 0.9 2.6 0.00 0.00 0.00 50 1029.1
20211017164828 41 11 0.0 2.6 0.00 0.00 0.00 50 1029.2
20211017164543 40 5 1.7 2.6 0.00 0.00 0.00 49 1029.2
20211017164327 40 34 1.7 2.6 0.00 0.00 0.00 50 1029.3
20211017163826 39 51 1.7 2.6 0.00 0.00 0.00 50 1029.4
20211017163325 39 45 0.9 3.5 0.00 0.00 0.00 55 1029.4
20211017163013 38 65 0.9 3.5 0.00 0.00 0.00 53 1029.5
20211017162828 38 71 1.7 3.5 0.00 0.00 0.00 55 1029.5
20211017162316 37 46 0.9 2.6 0.00 0.00 0.00 56 1029.6
20211017161828 37 38 1.7 2.6 0.00 0.00 0.00 56 1029.6
20211017161628 36 55 0.9 2.6 0.00 0.00 0.00 57 1029.9
20211017161317 36 53 0.9 2.6 0.00 0.00 0.00 59 1029.7
20211017160816 35 48 0.9 2.6 0.00 0.00 0.00 60 1029.7
20211017160313 34 44 0.9 1.7 0.00 0.00 0.00 63 1029.7
20211017160126 34 44 0.9 1.7 0.00 0.00 0.00 63 1030.1
20211017160005 34 37 0.9 1.7 0.00 0.00 0.00 65 1030.1
20211017155812 34 38 0.9 1.7 0.00 0.00 0.00 64 1029.7
20211017155311 33 37 0.0 1.7 0.00 0.00 0.00 68 1029.7
20211017154811 31 37 0.0 1.7 0.00 0.00 0.00 66 1029.8
20211017154601 31 37 0.0 1.7 0.00 0.00 0.00 66 1030.4
20211017154330 31 37 0.0 1.7 0.00 0.00 0.00 67 1029.9
20211017153821 30 34 0.0 2.6 0.00 0.00 0.00 69 1029.8
20211017153322 30 38 0.9 2.6 0.00 0.00 0.00 69 1030.0
20211017153040 29 321 0.9 1.7 0.00 0.00 0.00 70 1030.7
20211017152822 29 321 0.9 1.7 0.00 0.00 0.00 72 1030.2
20211017152313 29 321 0.0 0.9 0.00 0.00 0.00 74 1030.1
20211017151814 28 320 0.0 1.7 0.00 0.00 0.00 74 1030.2
20211017151542 27 320 0.0 1.7 0.00 0.00 0.00 74 1031.0
20211017151335 28 320 0.9 1.7 0.00 0.00 0.00 73 1030.3
20211017150822 27 320 0.0 1.7 0.00 0.00 0.00 75 1030.3
20211017150323 27 320 0.9 1.7 0.00 0.00 0.00 76 1030.3
20211017150137 26 320 0.0 1.7 0.00 0.00 0.00 77 1031.2
20211017145819 26 320 0.0 1.7 0.00 0.00 0.00 77 1030.3
20211017145318 25 319 0.0 1.7 0.00 0.00 0.00 78 1030.4
20211017144817 24 307 0.0 0.9 0.00 0.00 0.00 77 1030.3
20211017144542 23 307 0.0 0.9 0.00 0.00 0.00 78 1031.3
20211017144317 23 306 0.0 0.9 0.00 0.00 0.00 78 1030.3
20211017143820 22 307 0.0 0.9 0.00 0.00 0.00 77 1030.4
20211017143322 22 306 0.0 0.9 0.00 0.00 0.00 77 1030.3
20211017143053 21 299 0.0 0.9 0.00 0.00 0.00 78 1031.4
20211017142824 22 299 0.0 0.9 0.00 0.00 0.00 77 1030.2
20211017142321 21 299 0.0 0.9 0.00 0.00 0.00 78 1030.1
20211017141820 21 299 0.0 0.9 0.00 0.00 0.00 78 1030.3
20211017141606 20 299 0.0 0.9 0.00 0.00 0.00 78 1031.5
20211017141319 20 299 0.0 0.0 0.00 0.00 0.00 78 1030.2
20211017140813 19 360 0.0 0.0 0.00 0.00 0.00 77 1030.2
20211017140332 18 301 0.0 0.0 0.00 0.00 0.00 77 1030.2
20211017140109 18 309 0.0 0.0 0.00 0.00 0.00 77 1031.5
20211017135820 18 302 0.0 0.0 0.00 0.00 0.00 75 1030.1
20211017135319 17 299 0.0 0.0 0.00 0.00 0.00 72 1030.2
20211017134820 17 299 0.0 0.0 0.00 0.00 0.00 72 1030.1
20211017134551 17 299 0.0 0.0 0.00 0.00 0.00 72 1031.5
20211017134321 17 299 0.0 0.0 0.00 0.00 0.00 72 1030.2
20211017133821 17 299 0.0 0.0 0.00 0.00 0.00 72 1030.1
20211017133332 17 299 0.0 0.0 0.00 0.00 0.00 71 1030.1
20211017133014 16 299 0.0 0.0 0.00 0.00 0.00 71 1031.4
20211017132831 17 299 0.0 0.0 0.00 0.00 0.00 71 1030.1
20211017132331 17 299 0.0 0.0 0.00 0.00 0.00 71 1030.0
20211017131830 17 299 0.0 0.0 0.00 0.00 0.00 71 1030.1
20211017131504 16 299 0.0 0.0 0.00 0.00 0.00 71 1031.5
20211017131330 17 299 0.0 0.0 0.00 0.00 0.00 71 1030.1
20211017130830 17 299 0.0 0.0 0.00 0.00 0.00 71 1030.2
20211017130328 17 299 0.0 0.0 0.00 0.00 0.00 72 1030.1
20211017130052 17 299 0.0 0.0 0.00 0.00 0.00 72 1031.4
20211017125828 17 299 0.0 0.0 0.00 0.00 0.00 72 1030.1
20211017125329 17 299 0.0 0.0 0.00 0.00 0.00 72 1030.2
20211017124828 17 299 0.0 0.0 0.00 0.00 0.00 72 1030.1
20211017124526 16 299 0.0 0.0 0.00 0.00 0.00 71 1031.5
20211017124328 17 299 0.0 0.9 0.00 0.00 0.00 71 1030.1
20211017123827 17 299 0.0 0.9 0.00 0.00 0.00 69 1030.1
20211017123326 17 299 0.0 0.9 0.00 0.00 0.00 71 1030.2
20211017123025 17 299 0.0 0.9 0.00 0.00 0.00 71 1031.8
20211017122825 17 300 0.0 0.9 0.00 0.00 0.00 71 1030.3
20211017122324 17 300 0.0 0.0 0.00 0.00 0.00 71 1030.3
20211017121817 17 300 0.0 0.0 0.00 0.00 0.00 71 1030.3
20211017121644 17 300 0.0 0.0 0.00 0.00 0.00 71 1031.8
20211017121317 17 300 0.0 0.0 0.00 0.00 0.00 71 1030.3
20211017120819 17 300 0.0 0.0 0.00 0.00 0.00 71 1030.3
20211017120315 17 300 0.0 0.0 0.00 0.00 0.00 71 1030.3
20211017120036 17 300 0.0 0.0 0.00 0.00 0.00 71 1031.8
20211017115814 17 301 0.0 0.0 0.00 0.00 0.00 71 1030.3
20211017115314 17 301 0.0 0.0 0.00 0.00 0.00 71 1030.3
20211017114833 17 301 0.0 0.0 0.00 0.00 0.00 71 1030.4
20211017114505 17 301 0.0 0.9 0.00 0.00 0.00 71 1032.0
20211017114313 18 301 0.0 0.9 0.00 0.00 0.00 71 1030.4
20211017113813 18 301 0.0 0.9 0.00 0.00 0.00 71 1030.4
20211017113331 18 301 0.9 0.9 0.00 0.00 0.00 71 1030.5
20211017113142 17 301 0.0 0.9 0.00 0.00 0.00 71 1032.2
20211017112831 18 301 0.0 0.9 0.00 0.00 0.00 71 1030.6
20211017112316 18 301 0.0 0.0 0.00 0.00 0.00 71 1030.6
20211017111826 18 302 0.0 0.0 0.00 0.00 0.00 71 1030.6
20211017111602 18 302 0.0 0.0 0.00 0.00 0.00 71 1032.4
20211017111324 19 302 0.0 0.0 0.00 0.00 0.00 71 1030.6
20211017110824 19 301 0.0 0.0 0.00 0.00 0.00 72 1030.7
20211017110321 19 300 0.0 0.0 0.00 0.00 0.00 73 1030.7
20211017110107 18 300 0.0 0.0 0.00 0.00 0.00 73 1032.6
20211017105824 19 300 0.0 0.0 0.00 0.00 0.00 73 1030.7
20211017105323 19 300 0.0 0.0 0.00 0.00 0.00 73 1030.8
20211017104820 19 300 0.0 0.0 0.00 0.00 0.00 73 1030.6
20211017104548 18 300 0.0 0.0 0.00 0.00 0.00 72 1032.7
20211017104320 19 300 0.0 0.0 0.00 0.00 0.00 71 1030.8
20211017103818 19 300 0.0 0.0 0.00 0.00 0.00 72 1030.8
20211017103320 19 300 0.0 0.9 0.00 0.00 0.00 71 1030.7
20211017103140 18 300 0.0 1.7 0.00 0.00 0.00 71 1032.6
20211017102819 19 300 0.0 1.7 0.00 0.00 0.00 71 1030.8
20211017102318 19 299 0.9 1.7 0.00 0.00 0.00 70 1030.8
20211017101829 19 299 0.0 0.0 0.00 0.00 0.00 73 1030.8
20211017101648 19 299 0.0 0.9 0.00 0.00 0.00 73 1032.7
20211017101316 20 299 0.0 0.9 0.00 0.00 0.00 73 1030.8
20211017100815 20 299 0.0 0.9 0.00 0.00 0.00 73 1030.8
20211017100320 20 299 0.0 0.0 0.00 0.00 0.00 73 1030.8
20211017100041 19 299 0.0 0.0 0.00 0.00 0.00 73 1032.8
20211017095818 20 299 0.0 0.0 0.00 0.00 0.00 73 1030.8
20211017095316 20 299 0.0 1.7 0.00 0.00 0.00 73 1030.9
20211017094814 20 299 0.0 1.7 0.00 0.00 0.00 73 1030.8
20211017094503 19 299 0.9 1.7 0.00 0.00 0.00 73 1032.8
20211017094328 20 299 0.9 1.7 0.00 0.00 0.00 73 1030.9
20211017093829 20 299 0.0 0.9 0.00 0.00 0.00 73 1031.0
20211017093316 20 299 0.9 0.9 0.00 0.00 0.00 73 1030.9
20211017093055 20 299 0.0 0.9 0.00 0.00 0.00 73 1032.9
20211017092814 20 299 0.0 0.0 0.00 0.00 0.00 73 1030.9
20211017092315 20 299 0.0 0.0 0.00 0.00 0.00 73 1031.0
20211017091818 20 299 0.0 0.0 0.00 0.00 0.00 73 1031.2
20211017091618 20 299 0.0 0.0 0.00 0.00 0.00 73 1033.1
20211017091328 20 299 0.0 0.0 0.00 0.00 0.00 73 1031.2
20211017090830 21 299 0.0 0.0 0.00 0.00 0.00 73 1031.2
20211017090330 21 299 0.0 0.0 0.00 0.00 0.00 74 1031.3
20211017090203 20 299 0.0 0.0 0.00 0.00 0.00 73 1033.3
20211017085822 20 299 0.0 0.0 0.00 0.00 0.00 72 1031.2
20211017085323 20 299 0.0 0.9 0.00 0.00 0.00 71 1031.3
20211017084821 21 299 0.0 1.7 0.00 0.00 0.00 70 1031.3
20211017084551 20 299 0.0 1.7 0.00 0.00 0.00 70 1033.3
20211017084320 21 299 0.9 1.7 0.00 0.00 0.00 72 1031.5
20211017083821 22 299 0.0 0.0 0.00 0.00 0.00 73 1031.5
20211017083322 22 299 0.0 0.0 0.00 0.00 0.00 73 1031.5
20211017083021 21 299 0.0 0.0 0.00 0.00 0.00 73 1033.6
20211017082843 22 299 0.0 0.0 0.00 0.00 0.00 73 1031.5
20211017082333 22 299 0.0 0.0 0.00 0.00 0.00 73 1031.5
20211017081813 22 299 0.0 0.0 0.00 0.00 0.00 73 1031.5
20211017081616 21 299 0.0 0.9 0.00 0.00 0.00 73 1033.6
20211017081505 21 299 0.0 0.9 0.00 0.00 0.00 73 1033.6
20211017081332 22 299 0.0 0.9 0.00 0.00 0.00 73 1031.5
20211017080831 22 299 0.0 1.7 0.00 0.00 0.00 72 1031.5
20211017080326 22 299 0.9 1.7 0.00 0.00 0.00 72 1031.5
20211017080050 22 299 0.9 1.7 0.00 0.00 0.00 72 1033.8
20211017075817 22 299 0.9 1.7 0.00 0.00 0.00 72 1031.6
20211017075327 22 299 0.0 1.7 0.00 0.00 0.00 72 1031.5
20211017074824 22 299 0.9 1.7 0.00 0.00 0.00 72 1031.5
20211017074526 22 299 0.0 1.7 0.00 0.00 0.00 72 1033.7
20211017074322 22 299 0.9 1.7 0.00 0.00 0.00 72 1031.5
20211017073820 23 299 1.7 1.7 0.00 0.00 0.00 74 1031.6
20211017073321 23 9 0.0 0.9 0.00 0.00 0.00 76 1031.6
20211017073004 23 9 0.0 0.9 0.00 0.00 0.00 77 1034.0
20211017072821 24 9 0.0 0.9 0.00 0.00 0.00 77 1031.6
20211017072321 23 9 0.0 0.0 0.00 0.00 0.00 77 1031.5
20211017071823 23 9 0.0 0.0 0.00 0.00 0.00 77 1031.7
20211017071620 23 9 0.0 0.0 0.00 0.00 0.00 77 1034.2
20211017071327 23 9 0.0 0.0 0.00 0.00 0.00 77 1031.8
20211017070818 23 9 0.0 0.0 0.00 0.00 0.00 72 1031.7
20211017070320 23 9 0.0 0.0 0.00 0.00 0.00 71 1031.7
20211017070121 22 9 0.0 0.0 0.00 0.00 0.00 70 1034.4
20211017065820 23 9 0.0 0.0 0.00 0.00 0.00 71 1031.8
20211017065320 23 9 0.0 0.0 0.00 0.00 0.00 70 1032.1
20211017064819 23 9 0.0 0.0 0.00 0.00 0.00 71 1031.8
20211017064542 23 9 0.0 0.0 0.00 0.00 0.00 71 1034.5
20211017064320 23 9 0.0 0.0 0.00 0.00 0.00 71 1031.8
20211017063818 23 9 0.0 0.0 0.00 0.00 0.00 71 1031.8
20211017063315 23 9 0.0 0.9 0.00 0.00 0.00 71 1031.9
20211017063015 23 9 0.0 0.9 0.00 0.00 0.00 70 1034.6
20211017062814 23 9 0.0 1.7 0.00 0.00 0.00 69 1032.0
20211017062331 23 9 0.9 1.7 0.00 0.00 0.00 70 1032.0
20211017061828 23 9 0.0 0.0 0.00 0.00 0.00 70 1032.1
20211017061616 23 9 0.0 0.0 0.00 0.00 0.00 70 1034.6
20211017061322 23 9 0.0 0.9 0.00 0.00 0.00 69 1032.0
20211017060818 24 9 0.0 1.7 0.00 0.00 0.00 68 1032.1
20211017060313 24 9 0.9 1.7 0.00 0.00 0.00 69 1032.2
20211017060029 24 9 0.0 0.0 0.00 0.00 0.00 69 1034.9
20211017055810 24 9 0.0 0.0 0.00 0.00 0.00 70 1032.3
20211017055310 24 9 0.0 0.0 0.00 0.00 0.00 70 1032.2
20211017054810 25 9 0.0 0.0 0.00 0.00 0.00 70 1032.2
20211017054539 24 9 0.0 0.0 0.00 0.00 0.00 70 1034.9
20211017054312 24 9 0.0 0.0 0.00 0.00 0.00 70 1032.3
20211017053814 25 9 0.0 0.0 0.00 0.00 0.00 70 1032.4
20211017053318 25 9 0.0 0.0 0.00 0.00 0.00 70 1032.4
20211017053055 24 9 0.0 0.0 0.00 0.00 0.00 70 1035.0
20211017052820 25 9 0.0 0.0 0.00 0.00 0.00 70 1032.4
20211017052319 25 9 0.0 0.0 0.00 0.00 0.00 70 1032.4
20211017051829 24 9 0.0 0.0 0.00 0.00 0.00 69 1032.4
20211017051530 24 9 0.0 0.0 0.00 0.00 0.00 69 1035.1
20211017051330 24 9 0.0 0.0 0.00 0.00 0.00 69 1032.4
20211017050821 24 9 0.0 0.0 0.00 0.00 0.00 69 1032.5
20211017050317 24 9 0.0 0.0 0.00 0.00 0.00 70 1032.5
20211017050136 24 9 0.0 0.9 0.00 0.00 0.00 69 1035.1
20211017045814 24 9 0.0 0.9 0.00 0.00 0.00 69 1032.5
20211017045313 24 9 0.9 0.9 0.00 0.00 0.00 68 1032.4
20211017044823 25 9 0.9 1.7 0.00 0.00 0.00 68 1032.5
20211017044553 25 9 0.9 1.7 0.00 0.00 0.00 68 1035.1
20211017044324 25 9 0.9 1.7 0.00 0.00 0.00 68 1032.4
20211017043813 25 15 0.0 1.7 0.00 0.00 0.00 68 1032.4
20211017043314 26 15 0.0 1.7 0.00 0.00 0.00 69 1032.4
20211017043041 25 15 0.0 1.7 0.00 0.00 0.00 69 1035.0
20211017042816 26 286 0.0 0.9 0.00 0.00 0.00 68 1032.3
20211017042318 26 286 0.0 0.9 0.00 0.00 0.00 68 1032.5
20211017041823 26 286 0.9 0.9 0.00 0.00 0.00 68 1032.5
20211017041613 26 286 0.0 0.9 0.00 0.00 0.00 68 1035.3
20211017041323 26 286 0.0 0.9 0.00 0.00 0.00 68 1032.6
20211017040822 26 286 0.0 0.0 0.00 0.00 0.00 68 1032.6
20211017040320 27 286 0.0 0.0 0.00 0.00 0.00 67 1032.5
20211017040013 26 286 0.0 1.7 0.00 0.00 0.00 67 1035.3
20211017035819 27 286 0.0 1.7 0.00 0.00 0.00 67 1032.4
20211017035318 27 286 0.9 1.7 0.00 0.00 0.00 66 1032.3
20211017034817 27 286 0.9 0.9 0.00 0.00 0.00 67 1032.2
20211017034715 27 286 0.0 0.9 0.00 0.00 0.00 67 1035.2
20211017034317 27 286 0.0 0.9 0.00 0.00 0.00 67 1032.4
20211017033819 27 286 0.0 0.0 0.00 0.00 0.00 67 1032.3
20211017033321 27 286 0.0 0.0 0.00 0.00 0.00 68 1032.2
20211017033108 27 286 0.0 0.0 0.00 0.00 0.00 69 1035.2
20211017032825 27 286 0.0 0.0 0.00 0.00 0.00 69 1032.3
20211017032327 27 286 0.0 0.9 0.00 0.00 0.00 67 1032.3
20211017031828 27 286 0.0 1.7 0.00 0.00 0.00 67 1032.3
20211017031511 27 286 0.0 1.7 0.00 0.00 0.00 67 1035.2
20211017031329 28 286 0.9 1.7 0.00 0.00 0.00 67 1032.3
20211017030830 28 28 0.0 0.9 0.00 0.00 0.00 67 1032.2
20211017030326 28 28 0.0 0.9 0.00 0.00 0.00 66 1032.1
20211017030255 27 19 0.0 0.0 0.00 0.00 0.00 66 1035.0
20211017030001 27 19 0.0 0.0 0.00 0.00 0.00 66 1035.1
20211017025816 28 19 0.0 0.0 0.00 0.00 0.00 66 1032.0
20211017025317 28 19 0.0 1.7 0.00 0.00 0.00 65 1032.0
20211017024816 29 19 0.9 1.7 0.00 0.00 0.00 64 1032.1
20211017024708 28 19 0.0 0.9 0.00 0.00 0.00 65 1035.0
20211017024315 29 19 0.0 0.9 0.00 0.00 0.00 65 1032.0
20211017023815 29 19 0.0 0.9 0.00 0.00 0.00 64 1031.9
20211017023316 30 19 0.0 0.9 0.00 0.00 0.00 63 1032.0
20211017023154 30 19 0.0 0.9 0.00 0.00 0.00 63 1034.8
20211017022823 30 19 0.0 0.9 0.00 0.00 0.00 62 1032.0
20211017022323 31 19 0.0 0.9 0.00 0.00 0.00 62 1032.0
20211017021824 31 19 0.0 0.9 0.00 0.00 0.00 62 1032.0
20211017021552 31 19 0.0 0.9 0.00 0.00 0.00 62 1035.1
20211017021324 31 19 0.0 0.9 0.00 0.00 0.00 63 1032.1
20211017020825 31 19 0.0 0.0 0.00 0.00 0.00 62 1032.1
20211017020323 32 19 0.0 0.9 0.00 0.00 0.00 62 1032.1
20211017020031 31 19 0.0 0.9 0.00 0.00 0.00 62 1035.2
20211017015822 32 19 0.0 0.9 0.00 0.00 0.00 62 1032.0
20211017015320 32 19 0.0 1.7 0.00 0.00 0.00 62 1032.1
20211017014819 32 19 0.9 1.7 0.00 0.00 0.00 61 1032.0
20211017014509 31 19 0.0 0.9 0.00 0.00 0.00 60 1035.2
20211017014318 32 19 0.0 1.7 0.00 0.00 0.00 60 1032.1
20211017013818 32 19 0.0 1.7 0.00 0.00 0.00 60 1032.0
20211017013317 33 19 0.9 1.7 0.00 0.00 0.00 59 1032.1
20211017013019 32 19 0.0 0.0 0.00 0.00 0.00 58 1035.4
20211017012813 33 19 0.0 0.0 0.00 0.00 0.00 58 1032.0
20211017012312 33 360 0.0 0.9 0.00 0.00 0.00 57 1032.1
20211017011810 34 360 0.0 1.7 0.00 0.00 0.00 57 1032.0
20211017011648 33 78 0.0 2.6 0.00 0.00 0.00 57 1035.1
20211017011502 33 78 0.0 2.6 0.00 0.00 0.00 57 1035.1
20211017011311 34 84 0.9 2.6 0.00 0.00 0.00 56 1031.8
20211017010811 34 66 1.7 2.6 0.00 0.00 0.00 56 1031.9
20211017010328 35 256 0.9 1.7 0.00 0.00 0.00 54 1031.8
20211017010108 35 247 0.9 1.7 0.00 0.00 0.00 54 1034.8
20211017005829 35 255 0.9 1.7 0.00 0.00 0.00 53 1031.7
20211017005328 35 246 0.9 1.7 0.00 0.00 0.00 52 1031.6
20211017004829 36 237 1.7 2.6 0.00 0.00 0.00 52 1031.6
20211017004542 35 235 0.9 2.6 0.00 0.00 0.00 51 1034.8
20211017004310 36 235 1.7 2.6 0.00 0.00 0.00 51 1031.5
20211017003811 37 360 1.7 2.6 0.00 0.00 0.00 50 1031.5
20211017003312 37 242 1.7 2.6 0.00 0.00 0.00 50 1031.4
20211017003046 37 360 0.9 2.6 0.00 0.00 0.00 50 1034.6
20211017002813 38 238 0.9 1.7 0.00 0.00 0.00 48 1031.5
20211017002314 38 227 0.9 1.7 0.00 0.00 0.00 48 1031.5
20211017001814 38 227 1.7 1.7 0.00 0.00 0.00 48 1031.4
20211017001613 38 227 0.9 1.7 0.00 0.00 0.00 48 1034.5
20211017001317 39 227 0.9 1.7 0.00 0.00 0.00 48 1031.4
20211017000819 40 227 1.7 1.7 0.00 0.00 0.00 46 1031.3
20211017000320 41 228 0.9 1.7 0.00 0.00 0.00 45 1031.3
20211017000034 42 227 0.9 2.6 0.00 0.00 0.00 43 1034.5
20211016235824 43 227 1.7 2.6 0.00 0.00 0.00 41 1031.3
20211016235328 46 227 1.7 2.6 0.00 0.00 0.00 38 1031.3
20211016234811 48 223 1.7 2.6 0.00 0.00 0.00 33 1031.4
20211016234549 49 219 0.9 2.6 0.00 0.00 0.00 32 1034.5
20211016234330 50 219 1.7 2.6 0.00 0.00 0.00 31 1031.3
20211016233829 52 231 1.7 2.6 0.00 0.00 0.00 28 1031.3
20211016233330 53 261 0.9 2.6 0.00 0.00 0.00 27 1031.3
20211016233100 53 277 0.0 1.7 0.00 0.00 0.00 25 1034.6
20211016232839 54 277 0.0 1.7 0.00 0.00 0.00 25 1031.3
20211016232311 53 284 0.0 1.7 0.00 0.00 0.00 23 1031.3
20211016231810 53 284 0.9 2.6 0.00 0.00 0.00 23 1031.3
20211016231617 53 284 0.9 2.6 0.00 0.00 0.00 22 1034.7
20211016231310 54 282 1.7 2.6 0.00 0.00 0.00 22 1031.2
20211016230827 55 333 0.9 4.3 0.00 0.00 0.00 21 1031.3
20211016230325 55 346 0.9 4.3 0.00 0.00 0.00 22 1031.5
20211016230037 55 253 0.9 4.3 0.00 0.00 0.00 23 1034.8
20211016225813 55 261 0.9 2.6 0.00 0.00 0.00 22 1031.2
20211016225315 56 55 0.9 2.6 0.00 0.00 0.00 22 1031.3
20211016224816 56 71 0.9 2.6 0.00 0.00 0.00 22 1031.3
20211016224535 55 320 0.0 3.5 0.00 0.00 0.00 22 1035.0
20211016224316 56 340 1.7 3.5 0.00 0.00 0.00 23 1031.3
20211016223822 56 5 0.9 3.5 0.00 0.00 0.00 23 1031.5
20211016223322 55 299 0.0 5.2 0.00 0.00 0.00 25 1031.5
20211016223021 54 355 1.7 5.2 0.00 0.00 0.00 25 1035.3
20211016222819 55 49 2.6 5.2 0.00 0.00 0.00 24 1031.5
20211016222322 55 23 0.9 3.5 0.00 0.00 0.00 23 1031.6
20211016221812 55 101 1.7 3.5 0.00 0.00 0.00 24 1031.6
20211016221530 54 56 0.9 2.6 0.00 0.00 0.00 25 1035.6
20211016221314 55 94 0.9 2.6 0.00 0.00 0.00 26 1031.7
20211016220814 54 355 1.7 4.3 0.00 0.00 0.00 25 1031.7
20211016220312 54 40 2.6 7.0 0.00 0.00 0.00 25 1031.7
20211016220008 54 355 1.7 7.0 0.00 0.00 0.00 24 1035.9
20211016215833 55 32 3.5 7.0 0.00 0.00 0.00 24 1031.7
20211016214810 55 57 1.7 5.2 0.00 0.00 0.00 24 1031.8
20211016214644 54 335 1.7 5.2 0.00 0.00 0.00 26 1036.1
20211016214313 55 336 2.6 5.2 0.00 0.00 0.00 24 1031.9
20211016213815 55 337 1.7 4.3 0.00 0.00 0.00 26 1031.8
20211016213318 55 284 1.7 4.3 0.00 0.00 0.00 28 1031.9
20211016213108 54 336 0.9 3.5 0.00 0.00 0.00 25 1036.3
20211016212821 54 327 1.7 6.1 0.00 0.00 0.00 25 1032.0
20211016212323 54 44 2.6 6.1 0.00 0.00 0.00 26 1032.0
20211016211825 54 32 0.9 4.3 0.00 0.00 0.00 28 1031.9
20211016211551 53 57 1.7 4.3 0.00 0.00 0.00 28 1036.5
20211016211328 54 310 1.7 4.3 0.00 0.00 0.00 27 1032.0
20211016210811 53 61 1.7 4.3 0.00 0.00 0.00 26 1032.0
20211016210328 53 50 2.6 6.1 0.00 0.00 0.00 28 1032.0
20211016210116 52 327 1.7 6.1 0.00 0.00 0.00 31 1036.7
20211016205829 53 38 1.7 6.1 0.00 0.00 0.00 29 1032.1
20211016205330 52 355 1.7 4.3 0.00 0.00 0.00 30 1032.1
20211016204812 52 306 0.9 4.3 0.00 0.00 0.00 29 1032.1
20211016204550 51 360 0.9 4.3 0.00 0.00 0.00 30 1036.9
20211016204315 52 320 1.7 4.3 0.00 0.00 0.00 30 1032.2
20211016203830 52 246 2.6 4.3 0.00 0.00 0.00 29 1032.3
20211016203311 51 287 2.6 4.3 0.00 0.00 0.00 31 1032.3
20211016203029 50 278 0.9 4.3 0.00 0.00 0.00 32 1037.4
20211016202821 51 26 2.6 4.3 0.00 0.00 0.00 32 1032.4
20211016202313 51 328 1.7 5.2 0.00 0.00 0.00 33 1032.5
20211016201815 50 290 0.9 5.2 0.00 0.00 0.00 32 1032.6
20211016201525 49 319 1.7 4.3 0.00 0.00 0.00 31 1037.9
20211016201318 50 281 1.7 5.2 0.00 0.00 0.00 32 1032.7
20211016200821 50 360 2.6 3.5 0.00 0.00 0.00 31 1032.6
20211016200319 50 292 1.7 3.5 0.00 0.00 0.00 32 1032.8
20211016200115 49 312 0.9 3.5 0.00 0.00 0.00 31 1038.2
20211016195820 49 360 1.7 4.3 0.00 0.00 0.00 30 1032.8
20211016195324 49 313 1.7 6.1 0.00 0.00 0.00 34 1032.8
20211016194826 49 227 2.6 6.1 0.00 0.00 0.00 31 1032.9
20211016194618 49 306 1.7 7.0 0.00 0.00 0.00 32 1038.5
20211016193825 48 266 3.5 7.0 0.00 0.00 0.00 32 1033.0
20211016193326 48 276 1.7 4.3 0.00 0.00 0.00 33 1033.0
20211016193053 47 277 1.7 6.1 0.00 0.00 0.00 33 1038.7
20211016192822 48 254 0.9 6.1 0.00 0.00 0.00 34 1033.0
20211016192324 47 332 1.7 3.5 0.00 0.00 0.00 33 1033.2
20211016191826 47 330 1.7 5.2 0.00 0.00 0.00 32 1033.3
20211016191606 46 259 2.6 5.2 0.00 0.00 0.00 35 1039.1
20211016191324 46 267 3.5 5.2 0.00 0.00 0.00 33 1033.4
20211016190824 46 234 1.7 4.3 0.00 0.00 0.00 34 1033.5
20211016190324 45 255 0.9 4.3 0.00 0.00 0.00 33 1033.6
20211016190022 45 217 2.6 6.1 0.00 0.00 0.00 33 1039.6
20211016185826 46 246 1.7 6.1 0.00 0.00 0.00 35 1033.7
20211016185326 45 258 2.6 6.1 0.00 0.00 0.00 38 1033.7
20211016184825 45 325 1.7 5.2 0.00 0.00 0.00 37 1033.7
20211016184647 44 26 2.6 5.2 0.00 0.00 0.00 33 1039.9
20211016184502 44 27 1.7 5.2 0.00 0.00 0.00 35 1040.0
20211016184324 44 174 0.9 2.6 0.00 0.00 0.00 30 1033.8
20211016183315 43 355 0.9 2.6 0.00 0.00 0.00 34 1034.0
20211016183124 42 227 0.9 1.7 0.00 0.00 0.00 34 1040.4
20211016182816 42 241 0.9 2.6 0.00 0.00 0.00 36 1034.1
20211016182316 41 118 0.9 3.5 0.00 0.00 0.00 36 1034.2
20211016181817 41 102 1.7 4.3 0.00 0.00 0.00 35 1034.2
20211016181708 40 104 0.9 4.3 0.00 0.00 0.00 38 1040.6
20211016181317 40 32 1.7 4.3 0.00 0.00 0.00 39 1034.4
20211016180818 40 56 1.7 3.5 0.00 0.00 0.00 40 1034.4
20211016180313 40 70 1.7 3.5 0.00 0.00 0.00 40 1034.5
20211016180115 39 37 1.7 2.6 0.00 0.01 0.00 41 1041.1
20211016175825 39 38 0.9 2.6 0.00 0.01 0.00 40 1034.5
20211016175325 38 107 0.9 2.6 0.00 0.01 0.00 41 1034.6
20211016174824 38 105 1.7 3.5 0.00 0.01 0.00 41 1034.6
20211016174514 37 111 0.9 3.5 0.00 0.01 0.00 43 1041.1
20211016174323 37 35 1.7 3.5 0.00 0.01 0.00 42 1034.7
20211016173822 36 298 0.9 2.6 0.00 0.01 0.00 44 1034.7
20211016173321 36 106 0.0 4.3 0.00 0.01 0.00 44 1034.7
20211016173012 35 119 1.7 4.3 0.00 0.01 0.00 43 1041.3
20211016172821 36 71 2.6 4.3 0.00 0.01 0.00 44 1034.6
20211016172322 35 59 0.9 3.5 0.00 0.01 0.00 44 1034.9
20211016171820 35 62 1.7 3.5 0.00 0.01 0.00 46 1034.9
20211016171617 34 74 0.9 3.5 0.00 0.01 0.00 46 1041.7
20211016171320 35 59 0.9 3.5 0.00 0.01 0.00 47 1035.0
20211016170811 34 82 0.9 2.6 0.00 0.01 0.00 47 1034.9
20211016170329 34 17 0.9 1.7 0.00 0.01 0.00 48 1035.1
20211016170027 33 319 0.0 1.7 0.00 0.02 0.00 49 1041.9
20211016165830 33 345 0.9 1.7 0.00 0.02 0.00 48 1035.1